User: anonymous   Login
Location: Fauquembergues
(50.6005°N, 2.0987°E)
Time: 23:12:08
(UTC+00:00)
Language:

Meteor 1-25 Rocket - Orbit

View from above orbital plane
View from above orbital plane
View from above satellite
View from above satellite

Ground track
Ground track

The orbit data is extracted from the following two-line orbital elements,

1  8846U 76043B   20263.07883970 -.00000053 +00000-0 -37871-4 0  9991
2  8846 081.2259 234.0133 0037504 255.6689 104.0316 14.08609543278317
Epoch (UTC): 19 September 2020 01:53:31
Eccentricity: 0.0037504
inclination: 81.2259°
perigee height: 837 km
apogee height: 891 km
right ascension of ascending node: 234.0133°
argument of perigee: 255.6689°
revolutions per day: 14.08609543
mean anomaly at epoch: 104.0316°
orbit number at epoch: 27831

The dashed part of the orbit path shows where the satellite is in the earth's shadow,  

DLR